H1 CPF 2 NER 2024 9 30 9 274 01 glonass138 H2 1805301 9138 43508 2024 9 30 0 0 0 2024 10 3 23 45 0 900 1 1 0 0 0 1 H9 10 0 60583 0.00000 0 5908995.794 23183320.966 -8886276.765 10 0 60583 900.00000 0 6181084.503 24067311.466 -5828390.705 10 0 60583 1800.00000 0 6449686.865 24551950.078 -2657469.763 10 0 60583 2700.00000 0 6658056.202 24634140.792 564985.752 10 0 60583 3600.00000 0 6750830.694 24324229.104 3776486.861 10 0 60583 4500.00000 0 6676602.803 23645492.623 6914763.500 10 0 60583 5400.00000 0 6390327.737 22633110.083 9918967.353 10 0 60583 6300.00000 0 5855469.134 21332652.231 12730846.853 10 0 60583 7200.00000 0 5045791.157 19798157.938 15295871.826 10 0 60583 8100.00000 0 3946720.967 18089875.998 17564286.357 10 0 60583 9000.00000 0 2556223.382 16271766.845 19492069.916 10 0 60583 9900.00000 0 885149.900 14408868.286 21041788.512 10 0 60583 10800.00000 0 -1042954.012 12564634.807 22183319.850 10 0 60583 11700.00000 0 -3192576.954 10798361.017 22894438.770 10 0 60583 12600.00000 0 -5517476.367 9162796.237 23161251.810 10 0 60583 13500.00000 0 -7962370.418 7702049.258 22978472.452 10 0 60583 14400.00000 0 -10465018.376 6449870.319 22349531.463 10 0 60583 15300.00000 0 -12958604.473 5428381.713 21286519.662 10 0 60583 16200.00000 0 -15374327.448 4647309.904 19809963.474 10 0 60583 17100.00000 0 -17644089.008 4103751.176 17948436.689 10 0 60583 18000.00000 0 -19703169.843 3782480.609 15738014.968 10 0 60583 18900.00000 0 -21492781.861 3656791.389 13221582.703 10 0 60583 19800.00000 0 -22962389.975 3689829.026 10448004.857 10 0 60583 20700.00000 0 -24071705.946 3836364.100 7471179.301 10 0 60583 21600.00000 0 -24792270.230 4044928.238 4348987.835 10 0 60583 22500.00000 0 -25108554.853 4260222.407 1142166.364 10 0 60583 23400.00000 0 -25018540.446 4425694.713 -2086883.244 10 0 60583 24300.00000 0 -24533742.825 4486177.383 -5275315.749 10 0 60583 25200.00000 0 -23678687.891 4390469.918 -8361074.769 10 0 60583 26100.00000 0 -22489857.151 4093757.561 -11284109.523 10 0 60583 27000.00000 0 -21014148.730 3559761.277 -13987551.356 10 0 60583 27900.00000 0 -19306919.321 2762526.926 -16418826.237 10 0 60583 28800.00000 0 -17429690.259 1687776.861 -18530680.907 10 0 60583 29700.00000 0 -15447614.910 333765.916 -20282102.422 10 0 60583 30600.00000 0 -13426814.315 -1288395.076 -21639113.227 10 0 60583 31500.00000 0 -11431693.276 -3154962.417 -22575426.645 10 0 60583 32400.00000 0 -9522349.296 -5230320.463 -23072950.651 10 0 60583 33300.00000 0 -7752182.479 -7468248.822 -23122130.928 10 0 60583 34200.00000 0 -6165805.576 -9813643.151 -22722127.364 10 0 60583 35100.00000 0 -4797340.392 -12204618.051 -21880821.398 10 0 60583 36000.00000 0 -3669170.291 -14574904.723 -20614654.755 10 0 60583 36900.00000 0 -2791199.317 -16856443.888 -18948303.271 10 0 60583 37800.00000 0 -2160647.121 -18982066.453 -16914192.467 10 0 60583 38700.00000 0 -1762386.531 -20888150.873 -14551864.455 10 0 60583 39600.00000 0 -1569807.949 -22517147.053 -11907208.488 10 0 60583 40500.00000 0 -1546172.825 -23819862.295 -9031569.984 10 0 60583 41400.00000 0 -1646398.091 -24757414.590 -5980755.121 10 0 60583 42300.00000 0 -1819195.504 -25302772.364 -2813950.177 10 0 60583 43200.00000 0 -2009475.092 -25441816.979 407423.633 10 0 60583 44100.00000 0 -2160910.859 -25173884.132 3620897.802 10 0 60583 45000.00000 0 -2218560.235 -24511761.929 6764163.752 10 0 60583 45900.00000 0 -2131426.519 -23481146.080 9776276.422 10 0 60583 46800.00000 0 -1854856.014 -22119575.145 12598831.132 10 0 60583 47700.00000 0 -1352668.521 -20474890.432 15177091.165 10 0 60583 48600.00000 0 -598930.985 -18603284.734 17461044.577 10 0 60583 49500.00000 0 420700.974 -16567021.134 19406370.209 10 0 60583 50400.00000 0 1708130.935 -14431916.659 20975294.584 10 0 60583 51300.00000 0 3252495.933 -12264695.142 22137323.561 10 0 60583 52200.00000 0 5030382.202 -10130319.022 22869834.887 10 0 60583 53100.00000 0 7006575.082 -8089410.559 23158520.393 10 0 60583 54000.00000 0 9135313.559 -6195869.238 22997669.215 10 0 60583 54900.00000 0 11361998.984 -4494784.015 22390286.342 10 0 60583 55800.00000 0 13625288.380 -3020726.931 21348043.625 10 0 60583 56700.00000 0 15859486.652 -1796498.899 19891063.480 10 0 60583 57600.00000 0 17997139.144 -832379.721 18047538.540 10 0 60583 58500.00000 0 19971717.194 -125913.529 15853193.634 10 0 60583 59400.00000 0 21720284.947 337761.579 13350599.564 10 0 60583 60300.00000 0 23186035.941 585053.766 10588351.138 10 0 60583 61200.00000 0 24320592.883 652564.061 7620124.899 10 0 60583 62100.00000 0 25085973.572 585296.867 4503634.555 10 0 60583 63000.00000 0 25456139.696 434510.641 1299504.543 10 0 60583 63900.00000 0 25418062.571 255300.527 -1929915.859 10 0 60583 64800.00000 0 24972260.338 104016.401 -5121774.036 10 0 60583 65700.00000 0 24132783.514 35626.973 -8213946.391 10 0 60583 66600.00000 0 22926649.304 101142.995 -11146256.426 10 0 60583 67500.00000 0 21392748.586 345210.144 -13861653.783 10 0 60583 68400.00000 0 19580271.871 803974.770 -16307330.400 10 0 60583 69300.00000 0 17546720.995 1503313.984 -18435751.369 10 0 60583 70200.00000 0 15355590.605 2457505.807 -20205580.114 10 0 60583 71100.00000 0 13073817.293 3668396.281 -21582479.928 10 0 60583 72000.00000 0 10769103.613 5125099.158 -22539776.569 10 0 60583 72900.00000 0 8507229.082 6804241.232 -23058969.659 10 0 60583 73800.00000 0 6349460.287 8670743.322 -23130083.715 10 0 60583 74700.00000 0 4350167.639 10679104.432 -22751852.823 10 0 60583 75600.00000 0 2554747.228 12775135.566 -21931736.203 10 0 60583 76500.00000 0 997933.073 14898071.072 -20685765.068 10 0 60583 77400.00000 0 -297431.387 16982969.594 -19038224.318 10 0 60583 78300.00000 0 -1321113.115 18963304.852 -17021175.595 10 0 60583 79200.00000 0 -2075672.435 20773638.568 -14673831.155 10 0 60583 80100.00000 0 -2576103.309 22352264.447 -12041790.709 10 0 60583 81000.00000 0 -2848947.767 23643713.343 -9176155.978 10 0 60583 81900.00000 0 -2930923.171 24601015.489 -6132539.947 10 0 60583 82800.00000 0 -2867121.279 25187625.680 -2969989.893 10 0 60583 83700.00000 0 -2708855.886 25378931.360 250155.125 10 0 60583 84600.00000 0 -2511250.452 25163280.868 3465450.336 10 0 60583 85500.00000 0 -2330667.885 24542489.045 6613552.029 10 0 60584 0.00000 0 -2222091.234 23531799.295 9633421.538 10 0 60584 900.00000 0 -2236565.931 22159303.044 12466504.973 10 0 60584 1800.00000 0 -2418811.753 20464842.171 15057862.025 10 0 60584 2700.00000 0 -2805105.227 18498438.113 17357227.771 10 0 60584 3600.00000 0 -3421522.193 16318314.044 19319983.246 10 0 60584 4500.00000 0 -4282615.031 13988591.525 20908018.035 10 0 60584 5400.00000 0 -5390580.989 11576756.976 22090468.364 10 0 60584 6300.00000 0 -6734957.712 9151002.631 22844316.740 10 0 60584 7200.00000 0 -8292860.121 6777551.843 23154841.692 10 0 60584 8100.00000 0 -10029750.390 4518079.151 23015908.940 10 0 60584 9000.00000 0 -11900710.530 2427331.700 22430098.065 10 0 60584 9900.00000 0 -13852166.157 551050.337 21408661.737 10 0 60584 10800.00000 0 -15823990.996 -1075723.572 19971317.544 10 0 60584 11700.00000 0 -17751905.581 -2429885.451 18145875.529 10 0 60584 12600.00000 0 -19570070.835 -3500997.593 15967707.690 10 0 60584 13500.00000 0 -21213768.652 -4291481.777 13479068.724 10 0 60584 14400.00000 0 -22622057.373 -4816266.633 10728280.363 10 0 60584 15300.00000 0 -23740290.539 -5101904.960 7768794.581 10 0 60584 16200.00000 0 -24522392.591 -5185198.628 4658153.558 10 0 60584 17100.00000 0 -24932795.039 -5111389.774 1456866.738 10 0 60584 18000.00000 0 -24947950.650 -4931995.553 -1772772.719 10 0 60584 18900.00000 0 -24557360.974 -4702379.134 -4967908.289 10 0 60584 19800.00000 0 -23764073.110 -4479161.015 -8066352.504 10 0 60584 20700.00000 0 -22584624.190 -4317581.648 -11007806.330 10 0 60584 21600.00000 0 -21048435.637 -4268928.458 -13735040.676 10 0 60584 22500.00000 0 -19196682.609 -4378137.490 -16195016.147 10 0 60584 23400.00000 0 -17080686.429 -4681672.343 -18339918.524 10 0 60584 24300.00000 0 -14759897.821 -5205770.956 -20128089.516 10 0 60584 25200.00000 0 -12299555.910 -5965135.013 -21524834.655 10 0 60584 26100.00000 0 -9768121.345 -6962117.682 -22503092.961 10 0 60584 27000.00000 0 -7234590.987 -8186444.196 -23043955.940 10 0 60584 27900.00000 0 -4765806.073 -9615477.167 -23137026.598 10 0 60584 28800.00000 0 -2423865.721 -11215015.605 -22780612.346 10 0 60584 29700.00000 0 -263752.643 -12940594.181 -21981748.852 10 0 60584 30600.00000 0 1668731.193 -14739228.452 -20756055.106 10 0 60584 31500.00000 0 3338634.453 -16551533.156 -19127423.062 10 0 60584 32400.00000 0 4723064.015 -18314125.197 -17127548.257 10 0 60584 33300.00000 0 5811881.747 -19962211.153 -14795310.696 10 0 60584 34200.00000 0 6607863.301 -21432251.424 -12176018.059 10 0 60584 35100.00000 0 7126314.141 -22664589.966 -9320525.836 10 0 60584 36000.00000 0 7394160.631 -23605939.969 -6284251.276 10 0 60584 36900.00000 0 7448555.819 -24211621.739 -3126100.146 10 0 60584 37800.00000 0 7335059.744 -24447459.381 92673.090 10 0 60584 38700.00000 0 7105471.810 -24291257.022 3309649.751 10 0 60584 39600.00000 0 6815407.184 -23733792.822 6462453.225 10 0 60584 40500.00000 0 6521719.844 -22779289.097 9489953.888 10 0 60584 41400.00000 0 6279881.144 -21445338.667 12333449.517 10 0 60584 42300.00000 0 6141424.604 -19762290.170 14937798.577 10 0 60584 43200.00000 0 6151564.710 -17772117.488 17252484.788 10 0 60584 44100.00000 0 6347090.196 -15526819.840 19232592.780 10 0 60584 45000.00000 0 6754620.812 -13086418.437 20839676.360 10 0 60584 45900.00000 0 7389301.372 -10516632.246 22042503.018 10 0 60584 46800.00000 0 8253988.746 -7886328.570 22817660.617 10 0 60584 47700.00000 0 9338966.942 -5264853.471 23150014.717 10 0 60584 48600.00000 0 10622203.546 -2719351.974 23033007.663 10 0 60584 49500.00000 0 12070138.243 -312188.488 22468793.430 10 0 60584 50400.00000 0 13638971.984 1901426.117 21468205.073 10 0 60584 51300.00000 0 15276404.364 3875502.752 20050554.719 10 0 60584 52200.00000 0 16923747.873 5574952.100 18243269.009 10 0 60584 53100.00000 0 18518331.547 6976802.742 16081366.113 10 0 60584 54000.00000 0 19996094.023 8070908.898 13606783.452 10 0 60584 54900.00000 0 21294257.530 8860118.437 10867568.317 10 0 60584 55800.00000 0 22353970.381 9359894.454 7916946.533 10 0 60584 56700.00000 0 23122806.358 9597406.775 4812286.965 10 0 60584 57600.00000 0 23557014.959 9610132.284 1613982.049 10 0 60584 58500.00000 0 23623426.686 9444023.926 -1615733.367 10 0 60584 59400.00000 0 23300931.942 9151326.773 -4814001.179 10 0 60584 60300.00000 0 22581470.127 8788134.735 -7918572.456 10 0 60584 61200.00000 0 21470486.327 8411792.620 -10869028.031 10 0 60584 62100.00000 0 19986835.675 8078254.872 -13607962.421 10 0 60584 63000.00000 0 18162138.996 7839514.080 -16082107.132 10 0 60584 63900.00000 0 16039616.707 7741209.191 -18243370.744 10 0 60584 64800.00000 0 13672449.977 7820515.437 -20049775.218 10 0 60584 65700.00000 0 11121738.027 8104405.770 -21466270.181 10 0 60584 66600.00000 0 8454137.268 8608357.514 -22465409.644 10 0 60584 67500.00000 0 5739281.038 9335558.891 -23027878.581 10 0 60584 68400.00000 0 3047087.445 10276648.752 -23142859.895 10 0 60584 69300.00000 0 445067.206 11410000.335 -22808235.481 10 0 60584 70200.00000 0 -2004257.147 12702536.922 -22030618.300 10 0 60584 71100.00000 0 -4245714.320 14111045.023 -20825215.574 10 0 60584 72000.00000 0 -6233532.531 15583929.937 -19215526.343 10 0 60584 72900.00000 0 -7932989.330 17063340.112 -17232879.607 10 0 60584 73800.00000 0 -9321596.014 18487571.398 -14915822.247 10 0 60584 74700.00000 0 -10389769.083 19793650.628 -12309368.602 10 0 60584 75600.00000 0 -11140962.562 20919990.481 -9464126.229 10 0 60584 76500.00000 0 -11591257.464 21809004.597 -6435314.597 10 0 60584 77400.00000 0 -11768427.194 22409573.526 -3281695.616 10 0 60584 78300.00000 0 -11710519.508 22679258.230 -64436.548 10 0 60584 79200.00000 0 -11464015.790 22586168.427 3154072.820 10 0 60584 80100.00000 0 -11081645.879 22110407.339 6311425.949 10 0 60584 81000.00000 0 -10619951.085 21245032.115 9346405.070 10 0 60584 81900.00000 0 -10136698.369 19996489.346 12200163.309 10 0 60584 82800.00000 0 -9688254.791 18384506.913 14817360.763 10 0 60584 83700.00000 0 -9327032.885 16441446.033 17147232.869 10 0 60584 84600.00000 0 -9099114.505 14211139.668 19144570.817 10 0 60584 85500.00000 0 -9042153.234 11747264.788 20770595.400 10 0 60585 0.00000 0 -9183643.695 9111315.401 21993707.800 10 0 60585 900.00000 0 -9539630.995 6370258.035 22790103.656 10 0 60585 1800.00000 0 -10113914.895 3593969.515 23144237.221 10 0 60585 2700.00000 0 -10897783.203 852557.559 23049128.800 10 0 60585 3600.00000 0 -11870286.567 -1786322.138 22506507.558 10 0 60585 4500.00000 0 -12999044.408 -4260043.217 21526787.164 10 0 60585 5400.00000 0 -14241549.582 -6513373.846 20128873.888 10 0 60585 6300.00000 0 -15546918.283 -8500532.026 18339809.963 10 0 60585 7200.00000 0 -16858012.896 -10186845.816 16194258.132 10 0 60585 8100.00000 0 -18113849.472 -11549949.546 13733836.391 10 0 60585 9000.00000 0 -19252189.087 -12580466.264 11006314.975 10 0 60585 9900.00000 0 -20212204.102 -13282148.075 8064690.567 10 0 60585 10800.00000 0 -20937106.650 -13671468.811 4966155.436 10 0 60585 11700.00000 0 -21376627.821 -13776686.656 1770981.557 10 0 60585 12600.00000 0 -21489241.905 -13636416.896 -1458658.091 10 0 60585 13500.00000 0 -21244040.669 -13297775.917 -4659907.409 10 0 60585 14400.00000 0 -20622177.271 -12814175.964 -7770459.555 10 0 60585 15300.00000 0 -19617817.754 -12242865.128 -10729778.687 10 0 60585 16200.00000 0 -18238559.009 -11642317.941 -13480286.239 10 0 60585 17100.00000 0 -16505294.832 -11069588.202 -15968487.690 10 0 60585 18000.00000 0 -14451535.253 -10577737.122 -18146017.175 10 0 60585 18900.00000 0 -12122207.465 -10213446.355 -19970579.244 10 0 60585 19800.00000 0 -9571988.556 -10014917.370 -21406769.440 10 0 60585 20700.00000 0 -6863239.857 -10010146.020 -22426757.999 10 0 60585 21600.00000 0 -4063629.204 -10215645.105 -23010823.965 10 0 60585 22500.00000 0 -1243540.180 -10635668.413 -23147730.119 10 0 60585 23400.00000 0 1526624.022 -11261968.513 -22834932.227 10 0 60585 24300.00000 0 4179130.466 -12074097.964 -22078619.413 10 0 60585 25200.00000 0 6651489.068 -13040240.816 -20893585.573 10 0 60585 26100.00000 0 8888802.015 -14118539.050 -19302934.904 10 0 60585 27000.00000 0 10845793.681 -15258857.986 -17337627.660 10 0 60585 27900.00000 0 12488438.124 -16404916.363 -15035875.126 10 0 60585 28800.00000 0 13795118.045 -17496691.642 -12442395.642 10 0 60585 29700.00000 0 14757268.635 -18472999.578 -9607545.994 10 0 60585 30600.00000 0 15379481.131 -19274139.849 -6586344.901 10 0 60585 31500.00000 0 15679063.384 -19844496.744 -3437407.376 10 0 60585 32400.00000 0 15685077.316 -20134985.742 -221810.431 10 0 60585 33300.00000 0 15436894.862 -20105243.232 2998088.036 10 0 60585 34200.00000 0 14982334.082 -19725467.292 6159854.410 10 0 60585 35100.00000 0 14375454.472 -18977832.027 9202185.417 10 0 60585 36000.00000 0 13674104.707 -17857415.692 12066091.903 10 0 60585 36900.00000 0 12937326.207 -16372603.098 14696037.652 10 0 60585 37800.00000 0 12222721.810 -14544944.669 17041011.528 10 0 60585 38700.00000 0 11583900.189 -12408476.993 19055512.611 10 0 60585 39600.00000 0 11068103.311 -10008532.122 20700429.658 10 0 60585 40500.00000 0 10714116.615 -7400083.885 21943798.319 10 0 60585 41400.00000 0 10550549.674 -4645698.688 22761421.802 10 0 60585 42300.00000 0 10594559.776 -1813174.564 23137343.204 10 0 60585 43200.00000 0 10851072.400 1027034.847 23064160.358 10 0 60585 44100.00000 0 11312531.962 3804505.704 22543176.895 10 0 60585 45000.00000 0 11959194.149 6451528.399 21584386.117 10 0 60585 45900.00000 0 12759948.574 8905680.429 20206287.241 10 0 60585 46800.00000 0 13673638.238 11112181.480 18435536.707 10 0 60585 47700.00000 0 14650821.353 13025933.155 16306440.294 10 0 60585 48600.00000 0 15635902.203 14613158.620 13860294.893 10 0 60585 49500.00000 0 16569541.870 15852573.878 11144591.868 10 0 60585 50400.00000 0 17391247.382 16736041.748 8212096.831 10 0 60585 51300.00000 0 18042029.825 17268681.305 5119823.405 10 0 60585 52200.00000 0 18467018.574 17468428.469 1927920.961 10 0 60585 53100.00000 0 18617920.259 17365066.686 -1301501.602 10 0 60585 54000.00000 0 18455217.355 16998769.279 -4505592.413 10 0 60585 54900.00000 0 17950012.183 16418215.890 -7621988.889 10 0 60585 55800.00000 0 17085437.081 15678363.680 -10590040.603 10 0 60585 56700.00000 0 15857570.025 14837968.676 -13351997.844 10 0 60585 57600.00000 0 14275816.048 13956963.240 -15854141.853 10 0 60585 58500.00000 0 12362737.620 13093801.582 -18047833.936 10 0 60585 59400.00000 0 10153340.549 12302886.315 -19890462.712 10 0 60585 60300.00000 0 7693845.035 11632185.276 -21346270.995 10 0 60585 61200.00000 0 5039993.145 11121139.366 -22387046.494 10 0 60585 62100.00000 0 2254963.305 10798949.478 -22992663.472 10 0 60585 63000.00000 0 -593021.320 10683314.227 -23151465.574 10 0 60585 63900.00000 0 -3433291.206 10779670.943 -22860483.240 10 0 60585 64800.00000 0 -6195427.906 11080971.042 -22125482.280 10 0 60585 65700.00000 0 -8811949.078 11567998.374 -20960843.447 10 0 60585 66600.00000 0 -11220870.391 12210216.357 -19389275.899 10 0 60585 67500.00000 0 -13368038.915 12967107.617 -17441370.543 10 0 60585 68400.00000 0 -15209142.341 13789949.301 -15155002.102 10 0 60585 69300.00000 0 -16711311.789 14623949.085 -12574591.593 10 0 60585 70200.00000 0 -17854253.015 15410651.848 -9750243.434 10 0 60585 71100.00000 0 -18630860.366 16090515.723 -6736773.766 10 0 60585 72000.00000 0 -19047289.320 16605549.130 -3592648.676 10 0 60585 72900.00000 0 -19122486.011 16901897.839 -378852.731 10 0 60585 73800.00000 0 -18887194.641 16932273.186 2842290.399 10 0 60585 74700.00000 0 -18382485.472 16658119.192 6008322.517 10 0 60585 75600.00000 0 -17657865.935 16051427.177 9057857.472 10 0 60585 76500.00000 0 -16769054.764 15096121.248 11931766.572 10 0 60585 77400.00000 0 -15775512.938 13788955.864 14574320.102 10 0 60585 78300.00000 0 -14737835.265 12139887.012 16934263.192 10 0 60585 79200.00000 0 -13715112.055 10171900.408 18965805.606 10 0 60585 80100.00000 0 -12762371.475 7920302.619 20629506.719 10 0 60585 81000.00000 0 -11928209.664 5431503.255 21893039.004 10 0 60585 81900.00000 0 -11252707.822 2761337.386 22731815.617 10 0 60585 82800.00000 0 -10765723.482 -27003.613 23129470.159 10 0 60585 83700.00000 0 -10485627.678 -2865348.393 23078179.357 10 0 60585 84600.00000 0 -10418541.163 -5683131.941 22578822.200 10 0 60585 85500.00000 0 -10558102.148 -8410085.764 21640971.992 10 0 60586 0.00000 0 -10885775.868 -10978921.077 20282720.868 10 0 60586 900.00000 0 -11371693.862 -13327895.655 18530338.522 10 0 60586 1800.00000 0 -11975987.952 -15403154.672 16417772.616 10 0 60586 2700.00000 0 -12650563.988 -17160752.851 13985997.200 10 0 60586 3600.00000 0 -13341240.691 -18568270.183 11282222.595 10 0 60586 4500.00000 0 -13990163.685 -19605954.987 8358980.795 10 0 60586 5400.00000 0 -14538392.598 -20267346.164 5273103.957 10 0 60586 6300.00000 0 -14928551.373 -20559348.558 2084615.803 10 0 60586 7200.00000 0 -15107428.800 -20501758.446 -1144442.035 10 0 60586 8100.00000 0 -15028418.140 -20126259.561 -4351225.204 10 0 60586 9000.00000 0 -14653691.278 -19474932.635 -7473318.737 10 0 60586 9900.00000 0 -13956014.051 -18598342.266 -10449960.973 10 0 60586 10800.00000 0 -12920124.686 -17553282.917 -13223234.373 10 0 60586 11700.00000 0 -11543615.931 -16400280.336 -15739199.112 10 0 60586 12600.00000 0 -9837282.673 -15200954.950 -17948946.631 10 0 60586 13500.00000 0 -7824919.640 -14015359.367 -19809552.245 10 0 60586 14400.00000 0 -5542577.078 -12899402.853 -21284908.238 10 0 60586 15300.00000 0 -3037305.212 -11902471.604 -22346421.476 10 0 60586 16200.00000 0 -365439.726 -11065344.873 -22973562.546 10 0 60586 17100.00000 0 2409500.436 -10418494.127 -23154256.491 10 0 60586 18000.00000 0 5219215.546 -9980835.938 -22885108.372 10 0 60586 18900.00000 0 7993228.252 -9758989.974 -22171460.128 10 0 60586 19800.00000 0 10661579.719 -9747072.104 -21027278.340 10 0 60586 20700.00000 0 13157507.319 -9927030.141 -19474875.703 10 0 60586 21600.00000 0 15419993.515 -10269506.996 -17544471.968 10 0 60586 22500.00000 0 17396081.008 -10735194.022 -15273603.139 10 0 60586 23400.00000 0 19042858.995 -11276616.863 -12706390.415 10 0 60586 24300.00000 0 20329039.126 -11840278.128 -9892683.030 10 0 60586 25200.00000 0 21236056.766 -12369066.322 -6887091.436 10 0 60586 26100.00000 0 21758652.928 -12804829.358 -3747929.461 10 0 60586 27000.00000 0 21904913.767 -13091004.121 -536085.764 10 0 60586 27900.00000 0 21695767.153 -13175191.207 2686153.720 10 0 60586 28800.00000 0 21163958.350 -13011566.241 5856309.613 10 0 60586 29700.00000 0 20352548.526 -12563026.041 8912916.076 10 0 60586 30600.00000 0 19312999.589 -11802978.927 11796707.757 10 0 60586 31500.00000 0 18102926.043 -10716703.382 14451763.943 10 0 60586 32400.00000 0 16783608.223 -9302217.214 16826588.091 10 0 60586 33300.00000 0 15417371.114 -7570619.751 18875102.268 10 0 60586 34200.00000 0 14064938.363 -5545891.470 20557537.639 10 0 60586 35100.00000 0 12782872.031 -3264157.960 21841204.242 10 0 60586 36000.00000 0 11621204.871 -772447.220 22701125.500 10 0 60586 36900.00000 0 10621363.952 1873009.631 23120525.437 10 0 60586 37800.00000 0 9814472.285 4608865.330 23091159.202 10 0 60586 38700.00000 0 9220099.410 7367046.060 22613480.308 10 0 60586 39600.00000 0 8845513.334 10077345.834 21696640.881 10 0 60586 40500.00000 0 8685465.368 12670119.148 20358324.222 10 0 60586 41400.00000 0 8722517.214 15078960.929 18624412.010 10 0 60586 42300.00000 0 8927896.970 17243262.862 16528491.624 10 0 60586 43200.00000 0 9262848.413 19110539.920 14111212.118 10 0 60586 44100.00000 0 9680417.020 20638430.047 11419500.460 10 0 60586 45000.00000 0 10127597.470 21796283.264 8505652.613 10 0 60586 45900.00000 0 10547751.738 22566273.364 5426316.748 10 0 60586 46800.00000 0 10883195.036 22943985.380 2241388.390 10 0 60586 47700.00000 0 11077839.380 22938453.999 -987160.650 10 0 60586 48600.00000 0 11079781.736 22571651.412 -4196496.018 10 0 60586 49500.00000 0 10843725.886 21877446.546 -7324152.707 10 0 60586 50400.00000 0 10333134.051 20900080.147 -10309259.976 10 0 60586 51300.00000 0 9522015.846 19692220.865 -13093734.365 10 0 60586 52200.00000 0 8396277.589 18312685.286 -15623416.657 10 0 60586 53100.00000 0 6954573.889 16823919.043 -17849129.844 10 0 60586 54000.00000 0 5208624.615 15289346.017 -19727637.148 10 0 60586 54900.00000 0 3182983.178 13770697.938 -21222481.348 10 0 60586 55800.00000 0 914265.275 12325437.079 -22304689.329 10 0 60586 56700.00000 0 -1550130.018 11004380.336 -22953328.707 10 0 60586 57600.00000 0 -4153753.692 9849624.056 -23155906.448 10 0 60586 58500.00000 0 -6833222.746 8892855.899 -22908602.542 10 0 60586 59400.00000 0 -9520630.806 8154123.408 -22216335.078 10 0 60586 60300.00000 0 -12146153.569 7641109.598 -21092656.164 10 0 60586 61200.00000 0 -14640741.178 7348944.493 -19559481.358 10 0 60586 62100.00000 0 -16938786.332 7260559.024 -17646658.237 10 0 60586 63000.00000 0 -18980657.971 7347565.088 -15391382.739 10 0 60586 63900.00000 0 -20714996.033 7571623.581 -12837474.640 10 0 60586 64800.00000 0 -22100672.739 7886241.903 -10034526.180 10 0 60586 65700.00000 0 -23108339.748 8238924.537 -7036940.182 10 0 60586 66600.00000 0 -23721497.647 8573585.607 -3902876.173 10 0 60586 67500.00000 0 -23937044.134 8833121.375 -693124.777 10 0 60586 68400.00000 0 -23765278.931 8962034.006 2530068.001 10 0 60586 69300.00000 0 -23229366.011 8908995.781 5704203.895 10 0 60586 70200.00000 0 -22364276.355 8629245.473 8767739.764 10 0 60586 71100.00000 0 -21215255.980 8086715.620 11661276.073 10 0 60586 72000.00000 0 -19835883.717 7255800.702 14328703.631 10 0 60586 72900.00000 0 -18285800.169 6122691.216 16718286.750 10 0 60586 73800.00000 0 -16628202.781 4686216.722 18783662.250 10 0 60586 74700.00000 0 -14927211.605 2958161.359 20484735.380 10 0 60586 75600.00000 0 -13245215.488 963037.189 21788455.788 10 0 60586 76500.00000 0 -11640309.119 -1262676.792 22669458.908 10 0 60586 77400.00000 0 -10163927.537 -3671800.023 23110560.558 10 0 60586 78300.00000 0 -8858776.445 -6208169.258 23103095.284 10 0 60586 79200.00000 0 -7757144.419 -8808741.234 22647091.663 10 0 60586 80100.00000 0 -6879667.316 -11405993.346 21751280.756 10 0 60586 81000.00000 0 -6234596.468 -13930523.869 20432936.826 10 0 60586 81900.00000 0 -5817601.279 -16313744.739 18717552.527 10 0 60586 82800.00000 0 -5612114.626 -18490555.455 16638353.858 10 0 60586 83700.00000 0 -5590206.667 -20401887.083 14235663.288 10 0 60586 84600.00000 0 -5713950.354 -21997010.220 11556122.496 10 0 60586 85500.00000 0 -5937221.031 -23235510.162 8651789.171 99